Wind_Speed
9 9 9 11 12 13 13 14 14 15 15 15 15 15 15 16 16 16 16 16 16 16 17 16 16 15 14 13 13 12 12 11 10 9 9 8 7 6 5 4 3 2 2
9 9 9 11 12 12 12 13 14 15 16 16 16 16 16 16 17 17 17 17 18 18 18 18 18 17 16 15 14 13 13 12 11 10 10 9 8 7 6 5 4 2 2
9 9 10 11 11 11 12 13 13 14 14 15 15 16 17 17 18 18 18 19 20 20 19 19 19 18 18 17 16 15 13 12 11 11 10 9 8 7 6 5 4 2 1
8 9 9 10 10 10 11 12 12 13 13 14 14 15 15 16 17 18 19 20 21 21 21 21 20 20 19 18 17 16 15 14 13 12 10 10 9 8 7 6 4 2 1
8 8 8 8 9 10 10 11 11 11 12 12 13 13 14 15 16 17 19 20 20 21 22 22 22 21 20 19 18 17 16 15 14 13 12 10 9 8 8 6 5 3 2
7 7 7 8 9 9 10 10 10 10 11 11 12 13 14 14 15 16 17 18 19 20 21 21 22 21 20 19 19 18 17 16 15 14 13 12 10 9 8 8 7 5 4
7 7 7 8 8 9 9 9 10 10 11 11 12 13 13 14 15 15 16 17 18 19 19 19 20 20 20 20 20 19 19 17 16 15 14 13 11 10 9 9 8 7 6
7 7 7 7 7 8 8 9 10 10 11 11 12 13 14 14 15 15 15 16 17 18 19 19 19 20 20 20 20 20 20 19 17 16 15 14 13 12 11 10 9 8 8
7 7 7 7 7 8 8 9 10 10 11 11 12 13 14 15 15 15 16 16 16 17 18 19 19 20 20 21 21 20 20 20 19 17 16 15 14 13 12 12 10 10 9
8 7 7 7 7 8 9 9 10 10 11 12 13 13 14 15 15 15 16 16 16 17 17 18 19 20 20 20 20 20 20 20 20 18 17 16 16 15 14 13 12 12 11
7 7 7 7 7 8 9 10 10 11 12 13 13 14 15 15 16 16 16 16 16 16 16 17 18 19 19 20 20 20 20 20 21 20 19 17 17 17 15 14 14 13 13
6 7 7 7 8 8 9 10 10 11 12 13 14 15 15 16 16 17 17 16 16 16 16 16 17 18 18 19 20 20 20 20 21 22 20 19 18 18 17 16 15 15 14
6 6 6 7 8 9 9 10 10 11 13 14 15 15 16 16 17 17 17 16 16 16 16 16 17 17 18 19 20 21 21 20 20 22 21 21 20 19 19 18 16 16 16
6 6 6 7 8 9 9 10 11 12 14 15 15 16 16 16 16 16 16 16 16 15 15 16 16 17 17 18 19 20 20 21 21 22 22 22 22 21 20 19 18 17 17
6 7 7 7 8 9 9 10 12 13 14 15 16 16 16 16 16 16 16 16 15 15 15 15 15 16 17 17 18 19 20 20 21 22 22 23 23 23 22 20 20 19 18
7 7 7 8 9 9 10 11 12 14 15 16 16 16 16 16 16 16 16 16 15 14 14 14 14 15 16 16 17 18 20 21 22 22 22 23 24 24 23 21 20 20 19
7 7 7 8 9 9 10 11 12 14 15 16 16 16 16 17 16 16 16 15 15 14 14 13 13 14 14 15 16 17 19 21 22 23 23 23 24 24 24 23 21 21 21
7 7 8 8 9 9 10 11 12 14 15 15 16 16 16 17 16 16 16 15 14 13 13 13 12 12 13 14 16 17 18 20 22 23 24 24 24 25 25 24 22 22 23
7 7 8 8 9 9 10 11 12 13 14 15 16 16 17 16 16 16 15 15 13 13 12 11 11 11 11 13 15 16 17 19 20 22 23 24 24 24 25 25 24 23 23
8 7 8 8 9 10 10 11 12 13 14 15 16 16 17 16 16 15 15 14 13 12 11 11 10 10 10 11 13 15 17 18 19 21 23 24 25 25 26 26 25 25 24
8 7 7 8 9 10 11 11 12 13 14 15 16 16 17 16 16 15 15 14 13 12 11 10 10 10 10 10 12 14 16 17 18 20 21 23 24 25 26 27 26 25 25
8 7 8 8 9 10 10 11 12 13 14 15 16 16 17 16 16 15 15 13 12 11 10 10 10 9 10 10 11 12 13 15 17 18 20 22 24 25 25 26 26 26 26
8 8 8 8 9 9 10 11 12 12 13 14 15 16 17 17 16 15 14 13 11 10 10 9 8 8 8 9 9 11 12 13 15 16 18 20 22 24 25 26 27 26 26
8 8 8 8 9 9 10 11 11 12 13 14 15 16 17 17 16 15 14 13 11 10 10 9 8 7 7 7 9 10 11 12 13 14 16 18 20 22 23 25 26 26 26
8 8 8 9 9 9 10 11 11 12 13 14 15 16 17 17 17 15 14 13 12 10 9 8 8 6 6 6 7 9 10 11 12 13 15 17 19 21 23 24 25 26 26
8 8 9 9 10 9 10 11 11 12 13 13 14 15 17 17 17 15 14 13 12 10 9 8 7 6 4 5 6 7 9 10 11 12 14 16 18 20 22 23 24 25 26
Wind_Direction
306 306 307 306 305 306 305 304 303 302 300 297 295 290 287 286 283 283 285 281 278 276 275 275 276 276 275 276 278 280 282 282 278 275 275 276 274 273 278 278 287 321 353
307 308 304 303 303 304 304 303 304 304 302 300 297 295 292 288 285 284 284 280 278 276 275 275 274 274 273 272 272 274 277 277 275 273 272 271 269 264 262 262 268 293 343
308 308 305 302 301 301 302 305 306 306 305 303 300 297 294 291 287 283 281 278 277 276 275 275 272 271 272 270 269 270 271 271 270 270 268 264 261 257 250 249 256 261 300
308 306 305 303 301 302 305 308 309 311 310 308 306 303 298 295 290 286 281 279 277 275 273 273 271 269 270 268 267 267 267 266 266 266 264 259 255 251 244 239 241 238 217
308 306 304 303 305 307 310 312 313 315 315 313 311 308 304 300 294 290 285 281 278 274 272 270 269 268 266 265 264 264 262 262 263 262 259 254 250 246 239 232 230 222 202
311 309 306 307 309 311 313 315 318 319 318 316 314 311 308 304 301 296 291 285 280 275 272 270 269 267 264 261 261 261 260 258 255 256 254 250 244 242 235 225 224 215 204
313 312 310 312 313 315 320 322 324 322 321 319 317 315 313 309 305 301 296 290 284 277 274 271 268 264 262 258 257 257 256 255 251 251 249 246 242 239 231 221 218 212 202
313 314 315 316 318 321 324 325 325 324 323 321 319 317 315 312 308 304 299 294 287 280 274 269 268 266 260 258 257 254 252 251 248 246 245 241 238 235 228 220 216 211 204
311 312 315 320 320 320 323 325 325 325 324 323 320 318 316 313 310 306 302 297 291 284 276 269 267 265 261 258 256 252 249 247 244 242 241 237 234 231 225 219 215 213 208
308 312 316 319 320 320 322 323 323 323 323 323 321 319 317 316 313 309 304 299 293 286 279 272 268 264 260 257 255 251 247 242 240 237 235 232 230 228 223 218 215 213 210
311 315 318 319 321 320 322 323 322 322 323 324 322 320 318 316 314 312 307 301 295 288 282 275 270 265 259 254 251 248 245 240 236 233 232 232 228 225 222 218 214 213 211
309 312 311 312 317 319 321 322 322 322 322 323 322 320 317 315 314 312 309 303 298 290 283 277 273 268 260 252 247 246 243 238 236 231 230 230 227 223 221 218 215 212 210
303 306 306 309 316 320 323 323 322 322 322 322 321 319 318 317 315 313 310 304 300 294 287 281 275 268 262 252 246 244 240 235 233 230 228 227 224 221 220 219 217 213 211
299 304 306 311 318 322 324 324 324 324 323 323 322 321 320 318 317 315 311 306 301 296 289 283 277 268 263 255 247 241 236 234 233 229 226 225 223 220 220 219 217 214 211
299 304 307 311 316 321 324 325 328 327 326 324 324 323 322 319 317 315 312 307 302 297 292 286 279 269 260 255 247 240 234 233 232 229 227 225 222 220 219 219 217 214 213
298 303 307 311 315 319 322 326 329 329 328 327 326 324 323 320 317 316 313 308 303 298 293 288 281 271 261 254 247 240 235 232 229 227 226 224 222 219 218 219 217 214 214
293 298 305 310 313 315 321 327 329 329 329 329 328 327 325 323 320 318 314 310 304 299 294 287 280 272 261 252 244 239 235 231 227 226 227 224 220 218 217 219 217 214 214
285 292 302 307 311 315 321 326 330 331 331 331 331 330 329 326 323 320 317 313 307 302 297 289 281 273 261 250 242 238 236 232 229 227 225 223 219 218 217 218 217 213 214
281 289 300 305 312 317 322 327 331 333 334 334 333 332 331 329 326 324 322 318 314 308 302 294 284 275 264 252 243 237 234 232 230 226 223 221 218 218 217 218 216 213 213
278 289 300 307 315 320 324 330 334 336 337 337 336 335 335 333 330 328 327 323 318 311 305 299 290 277 266 255 246 238 233 230 229 226 222 219 218 217 217 215 215 214 213
276 289 298 309 317 322 326 330 333 336 338 339 339 340 339 337 335 333 330 325 322 316 309 302 293 281 268 259 247 238 233 231 227 225 224 221 219 217 216 215 215 216 214
275 287 297 308 315 320 326 329 332 335 338 340 342 343 343 341 338 337 335 330 328 323 315 307 297 286 271 257 245 237 232 229 225 225 225 221 220 218 216 215 214 215 216
274 284 294 304 311 317 325 330 332 335 337 339 343 345 346 345 342 341 339 336 333 331 325 317 307 292 273 255 243 235 230 226 226 223 221 219 218 217 216 215 215 216 218
274 284 293 301 308 315 324 329 331 333 335 338 342 345 346 347 344 343 341 339 338 336 333 326 320 303 277 255 242 232 227 226 223 222 221 220 219 217 216 216 217 217 219
275 283 292 299 306 314 320 326 329 331 333 336 339 342 344 346 345 343 342 341 340 339 337 333 325 314 287 261 245 234 227 225 222 223 222 221 219 218 217 216 218 220 220
277 282 288 296 303 310 315 320 325 328 331 334 337 340 343 345 346 345 343 343 342 342 338 337 334 323 299 267 246 231 229 225 224 225 224 222 220 219 217 216 218 219 221
Height
5870 5870 5869 5869 5868 5867 5866 5866 5865 5864 5863 5863 5862 5862 5862 5862 5862 5862 5862 5862 5862 5863 5863 5863 5864 5865 5866 5866 5867 5868 5869 5869 5870 5870 5871 5872 5872 5873 5874 5874 5875 5875 5875
5869 5868 5868 5867 5867 5866 5865 5864 5863 5862 5861 5861 5860 5860 5859 5859 5859 5859 5859 5859 5860 5860 5860 5860 5861 5862 5863 5864 5865 5866 5867 5867 5868 5869 5870 5870 5871 5872 5873 5873 5874 5875 5875
5868 5867 5866 5866 5865 5864 5864 5863 5862 5861 5860 5859 5858 5857 5857 5856 5856 5856 5856 5856 5856 5857 5857 5857 5858 5859 5860 5861 5862 5863 5864 5865 5866 5867 5868 5869 5870 5871 5872 5872 5873 5874 5874
5866 5866 5865 5864 5864 5863 5862 5861 5860 5859 5858 5857 5856 5855 5854 5854 5853 5853 5853 5853 5853 5853 5853 5854 5855 5856 5857 5858 5859 5860 5862 5863 5864 5865 5866 5867 5868 5869 5870 5871 5872 5873 5874
5865 5864 5864 5863 5862 5861 5860 5859 5858 5857 5856 5855 5854 5853 5852 5851 5850 5850 5849 5849 5849 5849 5849 5850 5851 5852 5853 5854 5856 5857 5859 5860 5862 5863 5864 5865 5867 5868 5869 5870 5871 5872 5873
5863 5863 5862 5862 5861 5860 5859 5858 5857 5856 5855 5853 5852 5851 5850 5848 5848 5847 5846 5845 5845 5845 5845 5846 5847 5848 5849 5850 5852 5854 5855 5857 5859 5860 5862 5863 5865 5866 5867 5869 5870 5872 5873
5863 5862 5861 5860 5859 5858 5857 5856 5855 5854 5853 5852 5850 5849 5847 5846 5845 5844 5843 5842 5841 5841 5841 5842 5842 5843 5845 5846 5848 5850 5852 5854 5856 5857 5859 5861 5863 5864 5866 5868 5869 5871 5872
5861 5861 5860 5859 5858 5857 5856 5855 5854 5853 5851 5850 5848 5847 5846 5844 5842 5841 5840 5839 5838 5838 5838 5838 5838 5839 5840 5842 5844 5846 5848 5850 5852 5854 5857 5859 5861 5862 5864 5866 5868 5869 5871
5860 5859 5859 5858 5857 5856 5855 5854 5852 5851 5850 5848 5847 5845 5843 5842 5840 5838 5837 5836 5835 5834 5834 5834 5834 5835 5836 5838 5840 5842 5844 5846 5849 5851 5854 5856 5858 5860 5862 5864 5866 5868 5870
5859 5858 5857 5857 5856 5855 5854 5852 5851 5850 5848 5847 5845 5843 5841 5839 5837 5836 5834 5833 5832 5831 5830 5830 5830 5831 5832 5833 5835 5837 5840 5842 5845 5847 5850 5853 5855 5858 5860 5862 5864 5867 5869
5857 5857 5856 5855 5854 5853 5852 5851 5850 5848 5846 5845 5843 5841 5839 5837 5835 5833 5831 5830 5828 5827 5827 5826 5826 5827 5828 5829 5831 5833 5835 5838 5841 5844 5846 5849 5852 5855 5857 5860 5862 5864 5867
5856 5856 5855 5854 5853 5852 5851 5849 5848 5846 5845 5843 5840 5838 5836 5834 5832 5830 5828 5826 5825 5824 5823 5823 5822 5823 5823 5824 5826 5829 5831 5834 5837 5840 5843 5846 5849 5851 5854 5857 5859 5862 5865
5855 5855 5854 5853 5852 5851 5849 5848 5846 5845 5843 5841 5838 5836 5834 5831 5829 5827 5825 5823 5821 5820 5819 5818 5818 5818 5819 5820 5822 5824 5826 5829 5832 5835 5839 5842 5845 5848 5851 5854 5857 5859 5862
5854 5854 5853 5852 5851 5850 5848 5847 5845 5843 5841 5838 5836 5834 5831 5829 5826 5824 5821 5819 5818 5816 5815 5814 5814 5814 5815 5816 5818 5820 5822 5825 5828 5831 5834 5838 5841 5845 5848 5851 5854 5857 5860
5853 5852 5851 5851 5850 5848 5847 5845 5843 5841 5839 5836 5834 5831 5828 5826 5823 5821 5818 5816 5814 5812 5811 5810 5810 5810 5811 5812 5813 5815 5818 5821 5824 5827 5830 5833 5837 5841 5844 5847 5851 5854 5857
5852 5851 5850 5849 5848 5847 5845 5843 5841 5839 5837 5834 5831 5828 5826 5823 5820 5817 5815 5812 5810 5808 5807 5806 5806 5806 5806 5808 5809 5811 5814 5816 5819 5822 5826 5829 5833 5837 5840 5844 5847 5850 5854
5850 5849 5849 5848 5846 5845 5843 5841 5839 5837 5834 5832 5829 5826 5823 5820 5817 5814 5811 5809 5807 5805 5803 5802 5802 5802 5802 5803 5805 5807 5809 5812 5815 5818 5821 5825 5829 5832 5836 5840 5844 5847 5851
5848 5848 5847 5846 5845 5843 5842 5840 5837 5835 5832 5830 5827 5824 5820 5817 5814 5811 5808 5806 5803 5801 5800 5799 5798 5798 5798 5799 5801 5803 5805 5808 5811 5814 5817 5821 5824 5828 5832 5836 5840 5844 5848
5847 5846 5845 5845 5843 5842 5840 5838 5835 5833 5831 5828 5825 5821 5818 5814 5811 5808 5805 5803 5800 5798 5797 5795 5795 5795 5795 5796 5797 5799 5801 5804 5806 5809 5813 5816 5820 5824 5828 5832 5836 5840 5844
5844 5844 5843 5843 5841 5840 5838 5836 5834 5831 5829 5826 5823 5819 5816 5812 5809 5806 5803 5800 5797 5795 5793 5792 5791 5791 5791 5792 5793 5795 5797 5799 5802 5805 5808 5812 5816 5820 5824 5828 5833 5837 5841
5843 5842 5841 5840 5839 5838 5836 5834 5832 5830 5827 5824 5821 5817 5814 5810 5807 5803 5800 5797 5795 5792 5791 5789 5788 5788 5788 5789 5790 5792 5794 5796 5798 5801 5804 5808 5812 5815 5820 5824 5829 5833 5837
5841 5840 5839 5838 5837 5836 5834 5832 5830 5828 5826 5823 5819 5816 5812 5808 5805 5801 5798 5795 5793 5790 5789 5787 5786 5785 5785 5786 5787 5788 5790 5793 5795 5798 5800 5804 5808 5812 5816 5820 5824 5829 5833
5839 5838 5837 5837 5836 5834 5832 5831 5829 5826 5824 5821 5818 5815 5811 5807 5803 5800 5797 5794 5791 5789 5787 5785 5783 5783 5783 5783 5784 5786 5788 5790 5792 5795 5797 5800 5804 5808 5812 5816 5820 5825 5829
5837 5836 5836 5835 5834 5832 5830 5829 5827 5825 5823 5820 5817 5813 5810 5806 5802 5799 5795 5793 5790 5788 5786 5784 5782 5781 5781 5781 5782 5783 5785 5787 5789 5792 5794 5797 5800 5804 5808 5812 5816 5820 5825
5835 5834 5834 5833 5832 5830 5829 5827 5825 5823 5821 5818 5815 5812 5809 5805 5801 5797 5794 5791 5789 5787 5785 5783 5781 5780 5779 5779 5780 5781 5783 5784 5787 5789 5791 5794 5797 5801 5804 5808 5812 5816 5820
5833 5832 5832 5831 5830 5828 5827 5825 5824 5822 5819 5817 5814 5811 5808 5804 5800 5796 5793 5791 5788 5786 5784 5782 5780 5779 5778 5778 5778 5779 5781 5782 5784 5786 5788 5791 5794 5797 5801 5804 5808 5812 5816